[[{"header":{"parameterUnit":"m.s-1","parameterCategory":1,"la1":30.2991,"la2":30.254,"lo1":-89.0895,"lo2":-89.0444,"dy":0.0017,"dx":0.0017,"nx":28,"ny":28,"refTime":"2024-09-25T09:00:00:Z","depth":0,"parameterNumber":2,"parameterNumberName":"U-component_of_WINDS"},"data":[0,0,0,0,0,0,0,0,0,0,0,0,0,0,0,0,0,0,0,0,0,0,0,0,0,0,0,0,0,0,0,0,0,0,0,0,0,0,0,0,0,0,0,0,0,0,0,0,0,0,0,0,0,0,0,0,0,0,0.5228,0.5227,0,0.5162,0.5162,0.5161,0.511,0.5109,0.5109,0.5108,0.5038,0.5037,0.5036,0,0,0,0,0,0,0,0,0,0,0,0,0,0.5307,0.5306,0.5228,0.5227,0.5227,0.5162,0.5162,0.5161,0.511,0.5109,0.5109,0.5108,0.5039,0.5037,0.5035,0,0,0,0,0,0,0,0,0,0,0,0,0,0.526,0.5306,0.5228,0.5194,0.519,0.5163,0.5161,0.516,0.511,0.5109,0.5108,0.5108,0.5039,0.5037,0.5035,0.5037,0,0,0.5029,0.5028,0,0,0,0,0,0,0,0,0.5263,0.5257,0.5199,0.5196,0.5192,0.5143,0.5164,0.5119,0.511,0.514,0.5108,0.5107,0.5074,0.5069,0.5058,0.5033,0.503,0.5029,0.5027,0.5026,0.5026,0,0,0,0,0,0,0,0.5266,0.526,0.5202,0.5199,0.5194,0.518,0.5173,0.5155,0.5112,0.5137,0.5134,0.5127,0.5071,0.506,0.5056,0.5029,0.5029,0.5027,0.5025,0.5025,0.5001,0.5001,0,0,0,0,0,0,0.5275,0.5263,0.5204,0.52,0.5226,0.5179,0.5171,0.516,0.5112,0.5104,0.5127,0.5124,0.5064,0.5058,0.5053,0.505,0.5026,0.5024,0.5023,0.5,0.5001,0.5001,0,0,0,0,0,0,0.5277,0.5271,0.5207,0.523,0.5221,0.5179,0.5166,0.5159,0.5147,0.5104,0.5096,0.5124,0.5063,0.5056,0.5041,0.5047,0.5023,0.5022,0.4999,0.5,0.5001,0.5045,0,0,0,0,0,0,0.528,0.5272,0.5272,0.5231,0.522,0.5197,0.5167,0.5158,0.5144,0.514,0.5099,0.5091,0.5062,0.5044,0.5039,0.5044,0.502,0.4998,0.5,0.5001,0.5043,0.5047,0.5051,0,0,0,0,0,0.5283,0.5287,0.5273,0.5266,0.5221,0.5197,0.5191,0.5158,0.5145,0.5145,0.5117,0.5092,0.5048,0.5043,0.5037,0.5041,0.4998,0.4999,0.5001,0.5041,0.5046,0.5051,0,0,0,0,0,0,0.533,0.5281,0.5264,0.5256,0.5231,0.5188,0.5187,0.5165,0.5143,0.514,0.5099,0.5091,0.5079,0.5059,0.5054,0.5039,0.5019,0.502,0.5052,0.5057,0.5061,0.5065,0.5018,0,0,0,0,0,0.534,0.5325,0.5283,0.528,0.5268,0.523,0.5219,0.5196,0.5168,0.5157,0.5128,0.5101,0.5081,0.5068,0.5047,0.504,0.5029,0.5039,0.5044,0.5047,0.5047,0.504,0.5043,0.5006,0.5006,0.5006,0,0,0.5359,0.533,0.5324,0.5288,0.5266,0.5251,0.5221,0.5207,0.5195,0.5154,0.5138,0.5116,0.5083,0.5071,0.5065,0.5054,0.5056,0.5049,0.5052,0.505,0.5042,0.5045,0.5049,0.5007,0.5007,0.5007,0,0,0.5386,0.5364,0.5357,0.5336,0.5303,0.5278,0.5277,0.5237,0.5221,0.5204,0.5172,0.5157,0.5124,0.5101,0.5085,0.5103,0.5079,0.5098,0.5119,0.5112,0.5115,0.5118,0.5122,0.5124,0.5098,0.5098,0.5099,0,0.5413,0.539,0.5357,0.5344,0.5329,0.5292,0.5284,0.5265,0.5227,0.5217,0.5205,0.5161,0.5137,0.5119,0.5123,0.5112,0.5108,0.5101,0.5118,0.512,0.5121,0.5125,0.5127,0.5101,0.51,0.51,0.51,0,0.5425,0.5409,0.5408,0.5372,0.5357,0.5347,0.5311,0.53,0.5278,0.5253,0.5236,0.5205,0.5176,0.5171,0.515,0.5149,0.5143,0.5126,0.5105,0.5128,0.513,0.5132,0.5104,0.5103,0.5103,0.5102,0,0,0.5478,0.5425,0.5424,0.5407,0.5368,0.5355,0.5343,0.5316,0.5306,0.5281,0.5268,0.524,0.5224,0.5206,0.5182,0.5176,0.519,0.5159,0.5157,0.5164,0.5185,0.5197,0.5199,0.5175,0.5175,0.5175,0.5187,0,0.5497,0.5474,0.5444,0.543,0.5414,0.5379,0.5368,0.5343,0.5319,0.5302,0.5276,0.5256,0.5236,0.5225,0.5218,0.519,0.5193,0.5189,0.5161,0.516,0.5168,0.5201,0.5214,0.5226,0.5188,0.5188,0.5188,0,0.5516,0.5493,0.5479,0.544,0.5432,0.5423,0.5395,0.5379,0.5349,0.5332,0.5312,0.5286,0.527,0.5253,0.523,0.5227,0.5214,0.5198,0.5198,0.5192,0.5174,0.5194,0.523,0.5231,0.519,0.519,0.519,0,0.5554,0.552,0.5506,0.5493,0.5448,0.5442,0.5423,0.5392,0.5377,0.5352,0.5342,0.5316,0.5301,0.528,0.5248,0.5239,0.5227,0.5208,0.5211,0.5211,0.5208,0.5208,0.524,0.5203,0.5203,0.5203,0.5203,0,0.5577,0.5569,0.5522,0.5513,0.5503,0.5467,0.5457,0.5435,0.5408,0.5393,0.5362,0.5348,0.5307,0.5288,0.5262,0.5245,0.5239,0.5224,0.5217,0.5226,0.5227,0.5215,0.5213,0.5204,0.5204,0.5204,0.5203,0,0.5617,0.5586,0.5568,0.5527,0.5517,0.551,0.5475,0.5464,0.5439,0.5421,0.5415,0.5375,0.5352,0.5318,0.5284,0.5266,0.5252,0.5242,0.5263,0.5258,0.5262,0.5262,0.5285,0.5286,0.5251,0.5252,0.5252,0,0.5633,0.5625,0.5584,0.5572,0.5554,0.5536,0.5521,0.5486,0.5471,0.5436,0.5429,0.5403,0.538,0.5344,0.5312,0.5285,0.5273,0.5283,0.5268,0.5277,0.527,0.527,0.5269,0.5286,0.5286,0.5287,0.5287,0,0.5663,0.5648,0.5628,0.5602,0.5585,0.5562,0.5538,0.553,0.549,0.5475,0.5451,0.5433,0.5398,0.5372,0.5341,0.532,0.5296,0.5292,0.5291,0.5299,0.5311,0.5302,0.527,0.5291,0.5291,0.5291,0.5291,0.529,0.569,0.5681,0.565,0.5628,0.5607,0.5585,0.5573,0.5547,0.5527,0.5496,0.5477,0.5453,0.5422,0.5378,0.5358,0.5338,0.5328,0.5327,0.5326,0.5326,0.5328,0.5316,0.5332,0.5332,0.5332,0.5332,0.5332,0,0.5717,0.5696,0.5676,0.5644,0.5626,0.5607,0.5579,0.5565,0.5545,0.5519,0.5497,0.5469,0.5443,0.5409,0.5381,0.5371,0.536,0.5365,0.5364,0.5359,0.534,0.5343,0.5375,0.5375,0.5375,0.5375,0.5375,0.5375,0.5729,0.5713,0.5694,0.5666,0.5645,0.5622,0.5607,0.5587,0.5565,0.5535,0.5514,0.5493,0.5462,0.5432,0.5407,0.5397,0.5388,0.5396,0.5383,0.5365,0.5361,0.5357,0.536,0.5395,0.5395,0.5404,0.5404,0.5404]},{"header":{"parameterUnit":"m.s-1","parameterCategory":1,"la1":30.2991,"la2":30.254,"lo1":-89.0895,"lo2":-89.0444,"dy":0.0017,"dx":0.0017,"nx":28,"ny":28,"refTime":"2024-09-25T09:00:00:Z","depth":0,"parameterNumber":3,"parameterNumberName":"V-component_of_WINDS"},"data":[0,0,0,0,0,0,0,0,0,0,0,0,0,0,0,0,0,0,0,0,0,0,0,0,0,0,0,0,0,0,0,0,0,0,0,0,0,0,0,0,0,0,0,0,0,0,0,0,0,0,0,0,0,0,0,0,0,0,0.8345,0.8345,0,0.834,0.834,0.834,0.8304,0.8303,0.8302,0.8301,0.8295,0.8296,0.8296,0,0,0,0,0,0,0,0,0,0,0,0,0,0.8322,0.8322,0.8345,0.8345,0.8345,0.834,0.834,0.834,0.8304,0.8303,0.8302,0.8301,0.8295,0.8296,0.8297,0,0,0,0,0,0,0,0,0,0,0,0,0,0.8326,0.8322,0.8345,0.8326,0.8325,0.834,0.834,0.834,0.8304,0.8303,0.8302,0.83,0.8295,0.8296,0.8297,0.8329,0,0,0.83,0.83,0,0,0,0,0,0,0,0,0.8325,0.8327,0.8329,0.8328,0.8326,0.8321,0.8329,0.8336,0.8305,0.8312,0.8301,0.83,0.8305,0.8305,0.8307,0.8328,0.8328,0.83,0.83,0.8301,0.8301,0,0,0,0,0,0,0,0.8325,0.8327,0.8343,0.8329,0.8327,0.8318,0.8317,0.833,0.8316,0.8311,0.8309,0.8309,0.8304,0.8306,0.8306,0.8328,0.83,0.8301,0.8301,0.8302,0.8373,0.8374,0,0,0,0,0,0,0.8328,0.8327,0.8343,0.8343,0.8322,0.8319,0.8318,0.8324,0.8316,0.8313,0.831,0.8307,0.8305,0.8305,0.8306,0.8341,0.8301,0.8302,0.8302,0.8372,0.8373,0.8375,0,0,0,0,0,0,0.8327,0.833,0.8343,0.8334,0.8335,0.8321,0.8328,0.8325,0.8327,0.8314,0.8311,0.8315,0.8304,0.8305,0.8323,0.8341,0.8302,0.8303,0.837,0.8372,0.8374,0.8413,0,0,0,0,0,0,0.8327,0.833,0.8342,0.8334,0.8335,0.8361,0.8329,0.8325,0.8329,0.8325,0.8318,0.8316,0.8303,0.8322,0.8324,0.8341,0.8304,0.8369,0.8371,0.8374,0.841,0.8416,0.8421,0,0,0,0,0,0.8326,0.8354,0.8343,0.8345,0.8351,0.8362,0.8362,0.8347,0.833,0.8342,0.8334,0.8316,0.8339,0.8324,0.8326,0.8344,0.8367,0.837,0.8373,0.8408,0.8415,0.8421,0,0,0,0,0,0,0.8364,0.8352,0.8341,0.8367,0.8366,0.8356,0.8371,0.8356,0.8359,0.8356,0.8336,0.8335,0.8356,0.8352,0.8335,0.8373,0.835,0.8353,0.8375,0.8382,0.8387,0.8387,0.8304,0,0,0,0,0,0.8376,0.8386,0.8375,0.8399,0.8399,0.8385,0.8389,0.8377,0.8375,0.8375,0.8368,0.8366,0.8372,0.8377,0.8383,0.841,0.8407,0.8423,0.8428,0.8433,0.8436,0.8448,0.8455,0.8385,0.8385,0.8385,0,0,0.84,0.8394,0.8402,0.8406,0.8404,0.8414,0.8385,0.8397,0.8404,0.8376,0.8393,0.8388,0.8384,0.8407,0.8416,0.8404,0.8455,0.8437,0.8441,0.8441,0.8452,0.8458,0.8464,0.8387,0.8386,0.8386,0,0,0.8448,0.8445,0.8464,0.8462,0.8459,0.8449,0.8454,0.8446,0.8442,0.8458,0.8436,0.8444,0.8456,0.8454,0.8455,0.85,0.8483,0.8502,0.8531,0.8543,0.8549,0.8554,0.8568,0.8574,0.8506,0.8506,0.8506,0,0.8477,0.8492,0.8476,0.8489,0.8491,0.8466,0.8484,0.8483,0.8481,0.8483,0.8469,0.8482,0.8479,0.8499,0.851,0.8512,0.8515,0.8503,0.8549,0.8554,0.8558,0.8572,0.8578,0.8508,0.8508,0.8508,0.8507,0,0.8528,0.8539,0.8554,0.8553,0.8556,0.8572,0.8557,0.8562,0.855,0.8541,0.8557,0.8551,0.8554,0.8558,0.8547,0.8577,0.8569,0.8553,0.8529,0.8567,0.858,0.8585,0.8511,0.851,0.851,0.8509,0,0,0.86,0.8589,0.8595,0.8593,0.8587,0.8594,0.8608,0.8611,0.8615,0.8615,0.8625,0.8635,0.8619,0.862,0.8608,0.8618,0.8653,0.8601,0.86,0.8609,0.8683,0.8695,0.8701,0.8642,0.8643,0.8643,0.8683,0,0.8645,0.8668,0.8653,0.8678,0.8687,0.8662,0.8674,0.8671,0.8663,0.8669,0.866,0.8666,0.8646,0.8646,0.8656,0.8647,0.8667,0.8644,0.865,0.865,0.865,0.8708,0.872,0.8758,0.8688,0.8689,0.8689,0,0.8701,0.8702,0.8728,0.8719,0.8722,0.8733,0.8733,0.8739,0.8734,0.8728,0.8728,0.8712,0.8724,0.87,0.8715,0.87,0.8701,0.8697,0.8698,0.8697,0.8671,0.8707,0.877,0.8775,0.8697,0.8697,0.8696,0,0.8749,0.8757,0.8773,0.8773,0.8763,0.8771,0.8767,0.8761,0.8763,0.8763,0.8764,0.8766,0.8766,0.8768,0.8752,0.8737,0.8768,0.8744,0.8762,0.8762,0.8769,0.8769,0.8831,0.8772,0.8772,0.8772,0.8772,0,0.88,0.8816,0.8795,0.8804,0.8822,0.8803,0.8821,0.8814,0.8809,0.8816,0.8796,0.8803,0.8783,0.8788,0.8776,0.8789,0.879,0.8784,0.878,0.8785,0.8785,0.8785,0.8781,0.8774,0.8773,0.8773,0.8773,0,0.8856,0.8842,0.8858,0.8847,0.8844,0.8857,0.8847,0.8855,0.8845,0.8855,0.8856,0.8841,0.8845,0.883,0.8832,0.8824,0.8843,0.8836,0.8845,0.8842,0.886,0.8858,0.8923,0.893,0.8868,0.8869,0.8869,0,0.8889,0.8901,0.889,0.8894,0.8891,0.8897,0.8898,0.888,0.8883,0.8878,0.8886,0.8889,0.889,0.8898,0.8886,0.8887,0.8879,0.8902,0.8879,0.8883,0.8878,0.8877,0.8877,0.8907,0.8907,0.8908,0.8908,0,0.8948,0.894,0.8943,0.8944,0.8946,0.8946,0.8944,0.8948,0.8929,0.8932,0.8936,0.8937,0.8939,0.8941,0.8939,0.8934,0.8918,0.8916,0.892,0.8924,0.8928,0.8924,0.8856,0.8914,0.8914,0.8913,0.8913,0.8913,0.8992,0.9001,0.8995,0.8998,0.8995,0.8993,0.9,0.899,0.8994,0.8993,0.8983,0.8988,0.8982,0.8978,0.8975,0.8978,0.8968,0.8974,0.8975,0.8976,0.8979,0.8928,0.8978,0.8978,0.8978,0.8978,0.8978,0,0.9049,0.9043,0.9047,0.9044,0.9047,0.9032,0.9028,0.9031,0.9037,0.9032,0.9033,0.9037,0.9039,0.9027,0.9027,0.9032,0.9025,0.9033,0.9032,0.903,0.8989,0.8985,0.9039,0.9039,0.9039,0.9039,0.9039,0.9039,0.9079,0.9092,0.9083,0.9094,0.9088,0.9093,0.9093,0.909,0.9087,0.9092,0.9093,0.9085,0.9078,0.9077,0.9077,0.9074,0.9074,0.9084,0.9078,0.904,0.9034,0.9028,0.9024,0.9085,0.9085,0.9119,0.9119,0.9119]}]]